{"data":{"norad_id":51714,"intl_designator":"2022-016A","name":"STARLINK-3528","alt_names":[],"object_type":"PAYLOAD","status":"ACTIVE","operator":null,"country":"US","launch_date":"2022-02-21","launch_site_code":"AFETR","launch_vehicle":null,"mission":null,"orbit_class":"UNKNOWN","rcs_meters":null,"size_class":null,"mass_kg":null,"dimensions":null,"purposes":["comms"],"wikipedia_slug":null,"has_3d_model":false,"image_url":null,"decayed_at":null,"tle_current":{"epoch":"2026-05-24T23:40:33.687264Z","epoch_age_seconds":79486,"freshness":"FRESH","line1":"1 51714U 22016A   26144.98650101  .00000929  00000+0  76485-4 0  9999","line2":"2 51714  53.2142 346.5856 0001780 119.3796 240.7374 15.08829387234946","mean_motion":15.08829387,"eccentricity":0.000178,"inclination_deg":53.2142,"raan_deg":346.5856,"arg_perigee_deg":119.3796,"mean_anomaly_deg":240.7374,"bstar":7.6485e-5,"rev_number":23494,"period_min":95.438225978826,"perigee_km":538.54444036592,"apogee_km":541.00721733299,"semimajor_km":6917.9128288495,"source":"CELESTRAK","updated_at":"2026-05-25T13:38:16.919623Z"}}}